Location: Coopersdale
(40.3556°N, 78.9372°W)
Time: 09:46:30
(UTC+00:00)

Envisat - Pass Details

Date: 30 November 2020
Orbit: 764 x 766 km, 98.1° (Epoch: 15 January)

Event Time Altitude Azimuth Distance (km) Brightness Sun altitude
Rises 22:11:06 0° 162° (SSE) 3,218 6.3 -4.4°
Reaches altitude 10° 22:13:24 10° 162° (SSE) 2,296 5.6 -4.8°
Maximum altitude 22:18:27 80° 75° (ENE) 781 3.0 -5.7°
Drops below altitude 10° 22:23:33 10° 349° (N) 2,312 5.4 -6.6°
Sets 22:25:52 0° 349° (N) 3,242 6.1 -7.0°
